Flight Information

DEPARTURE
RIVERSIDE, CA
Elevation:
1536
Runways:
12/30 - 3061x100 - ASPH
14/32 - 13302x200 - CONC-G
ATIS:
134.75
Clearance Delivery:
121.75
Ground:
121.75
Tower:
127.65
DESTINATION
,
Elevation:
TPA:
1000 (est.)


6740.7 NM74° True-14° Var60° HDG

Flight Plan:
(click to file on line)

1. Type
2. Aircraft Identification
3. Aircraft Type / Special Equipment
4. True Airspeed
kts
5. Departure Airport
(ICAO code)
6. Arriving Airport
(ICAO code)
7. Cruising Altitude
ft
8. Alternate Airport
(ICAO code)
9. Route of Flight
10. Remarks


00:00:00 Departure ATIS: Destination ATIS:

Clearance Limit:
Route:
Altitude: Expect in minutes
Frequency:
Transponder: (7500 Hijack / 7600 Lost Comms / 7700 Emergency)


KRIV 110358Z AUTO 32005KT 10SM CLR 17/08 A2986 RMK AO2 SLP104 T01660083
Time: 2021-04-11T03:58:00Z
1618115000
Winds: 320 @ 5 kts
Visibility: 10.0 sm
Clouds (AGL): CLR
Temperature: 16.6 C
Dew Point: 8.3 C
Pressure: 29.861221 in Hgbr


Notes:

Data extracted from FAA Digital Chart Supplement. Effective: 0901Z Thursday, Feb 25, 2021 to 0901Z Thursday, APR 22, 2021
Current ATIS data is provided courtisy of PilotEdge.